Showing default

GLOBALSTAR M090, 38044

Orbit data source: Space-Track

GLOBALSTAR M090, 38044 is a payload satellite owned by Globalstar (US) in LEO that was launched on Wed, 28 Dec 2011 UTC via a SOYUZ-2-1A launch vehicle from the Tyuratam Missile And Space Complex (TTMTR). Payload-class satellites include a variety of spacecraft equipped with specific instruments for various scientific and technological missions. These include communications satellites like Starlink; space stations such as the ISS; scientific satellites like the Hubble; Earth observation satellites from companies like Planet Labs, Umbra, and HawkEye 360; GPS; miniature CubeSats for education and research; and military/defense satellites.

Loading next visibility...
Identifier
38044, 2011-080E
Orbit
LEO
Country
Flag of USUS / GLOB
Related business
Manufacturer
Thales Alenia
Mission
Operational Commercial Communications
Bus & Motor
PRISMA?, LS-400 AOCS?
Mass
715 kg wet, ~500 kg dry
Launch date (UTC)
2011-12-28 (14 years ago)
Launch vehicle
SOYUZ-2-1A
Launch site
Tyuratam Missile And Space Complex (TTMTR)
Object type
Payload
Rocket body
Debris
Shape & HBR
Trap Cyl + 2 Pan, 6.0 m
Radar Cross Section
20.931 m², Large (>1 m²)

Expand to show TLE details & history
Last TLE update: 23 hours ago

TLE from 23 hours ago
0 GLOBALSTAR M090
1 38044U 11080E   26119.25610331 -.00000085  00000-0  10516-3 0  9999
2 38044  52.0102 117.3815 0000086  64.9817 307.8872 12.62268384663536
Epoch: 2026-04-29T06:08Z
TLE epoch observation values (Epoch: 2026-04-29T06:08:47.325Z)
Latitude
10.09614°
Longitude
175.91852°
Altitude
1,413.5 km
Speed
7.155 km/s
True Right ascension
08h 21m 20s
True Declination
10° 02' 31"
Sunlit
Object was in daylight at epoch
Visualization orbit readout
Latitude
Unknown
Longitude
Unknown
Altitude
Unknown
Speed
Unknown
Apparent Right ascension
Unknown
Apparent Declination
Unknown
Sunlit
N/A
Visualization observer readout
Local Sidereal Time
12:34:51
Azimuth
Unknown
Elevation
Unknown
Doppler factor
Unknown
Orbital elements
Apogee altitude
1,414.053 km
Perigee altitude
1,413.919 km
Semi-major axis
7,792.123 km
Eccentricity
0.00001
Inclination
52.0102°
RAAN
117.3815°
Arg. of periapsis
64.9817°
True anomaly
307.88642°
Mean anomaly
307.8872°
Eccentric anomaly
307.88681°
Mean motion
3.15544 °/min
Orbital period
114.09 mins
BSTAR
0.00010516
Loading maneuver chart data...
Computing Atmospheric mass density...
Loading historical data...
Loading historical data...
Loading historical data...
Loading historical data...
Loading historical data...
Loading historical data...
Loading historical data...

Documentation

Showing up to 5 results
|